{"data":{"norad_id":69095,"epoch":"2026-09-19T21:04:06.592512Z","epoch_age_seconds":77062,"freshness":"FRESH","line1":"1 69095U 26105A   26262.87785408  .00177920 -71182-6  27723-3 0  9994","line2":"2 69095  88.9628 180.9932 0304131 289.9196  66.9541 15.54427709 19656","mean_motion":15.54427709,"eccentricity":0.0304131,"inclination_deg":88.9628,"raan_deg":180.9932,"arg_perigee_deg":289.9196,"mean_anomaly_deg":66.9541,"bstar":0.00027723,"rev_number":1965,"period_min":92.638595649224,"perigee_km":197.55648240033,"apogee_km":610.0769557062,"semimajor_km":6781.9537190533,"source":"CELESTRAK","updated_at":"2026-09-20T09:00:24.674907Z"}}